Content
SEND FEEDBACK

Daily
Averages
Monthly
Summary
United States of America

CAMP QUEZON, GUAM


Home > North America > United States > Guam
Elevation: 82 meters     Latitude: 13 28N     Longitude: 144 48E

WEATHER
 
SELECT A DAY
Number of Records: 208,860;   Date Range: 1/1/95 - 7/20/14
 
SHARE

PRINT THIS DATA

[ ← Previous Day ]
WEATHER ALMANAC - 16 NOVEMBER, 2013
[ Next Day → ]
[ °F ]   °C
Weather ElementAverageHighLow
Temperature26.7 °C31.1 °C (11:54 am)23.9 °C (4:54 am)
Dewpoint22.7 °C25 °C (2:54 pm)20.6 °C (1:54 am)
Humidity79.2 %94 % (2:54 pm)59 % (10:54 am)
Barometer1010.2 hPa1011.5 hPa (8:54 am)1008.5 hPa (1:54 pm)
Wind Speed13.8 km/h24.1 km/h (2:54 pm)
Wind Gust37 km/h (1:54 pm)
Weather ElementAverage
Visibility15.6 km
Wind DirectionENE (69.3 °)

Weather ElementTotal
Precipitation2.03 mm
Cooling Degree Days9.2 (Base 18.3)
Growing Degree Days17.5 (Base 10)
Averaged from 29 records on 16 November, 2013
WEATHER CONDITIONS BREAKOUT
WIND DIRECTION BREAKOUT
WEATHER BY HOUR - 16 NOVEMBER, 2013
[ °F ]   °C
Local TimeTemperatureDewpointHumidityBarometerVisibilityWind DirectionWind SpeedGust SpeedPrecipitationEventsConditions
1:54 AM24.4 °C20.6 °C79 %1010.2 hPa16.1 kmNE (50°)9.3 km/hClear
2:54 AM24.4 °C21.1 °C82 %1009.8 hPa16.1 kmENE (60°)13 km/hClear
3:54 AM24.4 °C21.1 °C82 %1009.5 hPa16.1 kmENE (60°)9.3 km/hClear
4:39 AM24 °C21 °C83 %1010.2 hPa16.1 kmENE (60°)11.1 km/hPartly Cloudy
4:54 AM23.9 °C20.6 °C82 %1009.5 hPa16.1 kmENE (60°)13 km/hClear
5:54 AM24.4 °C21.1 °C82 %1010.2 hPa16.1 kmENE (60°)7.4 km/hClear
6:54 AM25 °C21.7 °C82 %1010.8 hPa16.1 kmENE (60°)7.4 km/hClear
7:54 AM27.2 °C21.1 °C69 %1011.2 hPa16.1 kmNE (40°)7.4 km/hClear
8:54 AM28.3 °C21.1 °C65 %1011.5 hPa16.1 kmENE (60°)16.7 km/hPartly Cloudy
9:54 AM30 °C21.7 °C61 %1011.5 hPa16.1 kmNE (40°)18.5 km/hMostly Cloudy
10:54 AM30.6 °C21.7 °C59 %1010.8 hPa16.1 kmENE (60°)22.2 km/h27.8 km/hMostly Cloudy
11:54 AM31.1 °C22.2 °C59 %1009.8 hPa16.1 kmNE (50°)22.2 km/hOvercast
12:54 PM30.6 °C21.7 °C59 %1009.1 hPa16.1 kmENE (60°)20.4 km/hMostly Cloudy
1:54 PM29.4 °C23.3 °C69 %1008.5 hPa16.1 kmEast (90°)22.2 km/h37 km/hOvercast
2:24 PM27 °C24 °C84 %1009.1 hPa16.1 kmESE (110°)14.8 km/h0 mmRainLight Rain
2:32 PM27 °C24 °C84 %1009.1 hPa16.1 kmEast (100°)20.4 km/h31.5 km/h0 mmOvercast
2:54 PM26.1 °C25 °C94 %1008.8 hPa8 kmEast (80°)24.1 km/h37 km/h1.02 mmRainRain
3:03 PM26 °C25 °C94 %1009.1 hPa11.3 kmEast (90°)16.7 km/h0.51 mmRainLight Rain
3:54 PM26.7 °C23.9 °C85 %1008.8 hPa16.1 kmEast (90°)18.5 km/h0.51 mmMostly Cloudy
4:54 PM27.2 °C23.3 °C79 %1008.8 hPa16.1 kmENE (60°)14.8 km/hMostly Cloudy
5:54 PM26.7 °C23.3 °C81 %1009.1 hPa16.1 kmNE (50°)13 km/hMostly Cloudy
6:54 PM26.1 °C23.9 °C88 %1010.2 hPa16.1 kmEast (100°)14.8 km/hOvercast
7:18 PM26 °C24 °C89 %1011.2 hPa16.1 kmESE (110°)11.1 km/hOvercast
7:35 PM26 °C24 °C89 %1011.2 hPa16.1 kmSE (140°)5.6 km/hOvercast
7:54 PM25.6 °C24.4 °C93 %1010.5 hPa16.1 kmENE (70°)5.6 km/hOvercast
8:54 PM26.7 °C24.4 °C87 %1010.5 hPa16.1 kmNE (50°)9.3 km/hOvercast
9:54 PM27.2 °C22.8 °C77 %1010.8 hPa16.1 kmENE (70°)11.1 km/hOvercast
10:54 PM26.7 °C22.8 °C79 %1010.5 hPa16.1 kmNE (50°)9.3 km/hMostly Cloudy
11:54 PM26.7 °C23.3 °C81 %1010.2 hPa16.1 kmNNE (30°)11.1 km/hMostly Cloudy
Hourly data recorded from PGUM, located 0 kilometers away from Camp Quezon, Guam







STORIES FROM OUR PARTNERS